When you browse on this site, cookies collect data to enhance your experience and personalize the content and advertising you see.
Visit our Privacy Policy to learn more. By continuing to use the site, you agree to this use of cookies and data.
  • In Hungary
  • List of Countries
  • For 7 days
  • Water Temperature
  • Satellite Maps
  • Weather Map
  • News
  • Weather Widgets
  • user-avatar
    Login

    Hourly Weather Dortmund

    Today, 21 April, Sunday

    Time Temperature Precipitation Wind Pressure Humidity
    00:00 +14°C° 0 mm 2 mps 761 mmHg 56%
    01:00 +13°C° 0 mm 2 mps 761 mmHg 58%
    02:00 +13°C° 0 mm 1 mps 760 mmHg 59%
    03:00 +12°C° 0 mm 1 mps 760 mmHg 61%
    04:00 +13°C° 0 mm 1 mps 759 mmHg 60%
    05:00 +13°C° 0 mm 1 mps 759 mmHg 60%
    06:00 +13°C° 0 mm 1 mps 759 mmHg 60%
    07:00 +15°C° 0 mm 1 mps 759 mmHg 54%
    08:00 +19°C° 0 mm 1 mps 758 mmHg 48%
    09:00 +20°C° 0 mm 2 mps 758 mmHg 42%
    10:00 +21°C° 0 mm 2 mps 758 mmHg 37%
    11:00 +23°C° 0 mm 2 mps 757 mmHg 33%
    12:00 +24°C° 0 mm 2 mps 757 mmHg 28%
    13:00 +24°C° 0 mm 2 mps 756 mmHg 29%
    14:00 +24°C° 0 mm 2 mps 756 mmHg 30%
    15:00 +24°C° 0 mm 3 mps 755 mmHg 30%
    16:00 +22°C° 0 mm 3 mps 755 mmHg 36%
    17:00 +21°C° 0 mm 3 mps 754 mmHg 42%
    18:00 +20°C° 0 mm 3 mps 754 mmHg 48%
    19:00 +18°C° 0 mm 3 mps 754 mmHg 52%
    20:00 +17°C° 0 mm 3 mps 754 mmHg 55%
    21:00 +16°C° 0 mm 3 mps 754 mmHg 59%
    22:00 +16°C° 0 mm 3 mps 754 mmHg 59%
    23:00 +14°C° 0 mm 3 mps 754 mmHg 59%

    Tomorrow, 22 April, Monday

    Time Temperature Precipitation Wind Pressure Humidity
    00:00 +15°C° 0 mm 2 mps 754 mmHg 60%
    01:00 +14°C° 0 mm 2 mps 753 mmHg 61%
    02:00 +14°C° 0 mm 2 mps 753 mmHg 62%
    03:00 +13°C° 0 mm 2 mps 752 mmHg 64%
    04:00 +13°C° 0 mm 2 mps 752 mmHg 63%
    05:00 +14°C° 0 mm 2 mps 752 mmHg 62%
    06:00 +14°C° 0 mm 2 mps 752 mmHg 61%
    07:00 +16°C° 0 mm 2 mps 752 mmHg 54%
    08:00 +19°C° 0 mm 3 mps 751 mmHg 47%
    09:00 +21°C° 0 mm 4 mps 751 mmHg 40%
    10:00 +22°C° 0 mm 4 mps 750 mmHg 38%
    11:00 +22°C° 0 mm 5 mps 750 mmHg 35%
    12:00 +23°C° 0 mm 5 mps 749 mmHg 33%
    13:00 +23°C° 0 mm 5 mps 749 mmHg 35%
    14:00 +23°C° 0 mm 5 mps 748 mmHg 36%
    15:00 +23°C° 0 mm 6 mps 748 mmHg 37%
    16:00 +21°C° 0 mm 5 mps 748 mmHg 40%
    17:00 +20°C° 0 mm 5 mps 747 mmHg 44%
    18:00 +17°C° 0 mm 5 mps 747 mmHg 47%
    19:00 +16°C° 0 mm 5 mps 747 mmHg 48%
    20:00 +15°C° 0 mm 5 mps 747 mmHg 49%
    21:00 +13°C° 0 mm 6 mps 747 mmHg 51%
    22:00 +13°C° 0 mm 5 mps 747 mmHg 52%
    23:00 +12°C° 0 mm 5 mps 747 mmHg 53%

    Day after tomorrow, 23 April, Tuesday

    Time Temperature Precipitation Wind Pressure Humidity
    00:00 +12°C° 0 mm 4 mps 746 mmHg 54%
    01:00 +11°C° 0 mm 4 mps 746 mmHg 54%
    02:00 +11°C° 0 mm 4 mps 746 mmHg 55%
    03:00 +10°C° 0 mm 4 mps 745 mmHg 55%
    04:00 +9°C° 0 mm 5 mps 745 mmHg 58%
    05:00 +9°C° 0 mm 5 mps 745 mmHg 62%
    06:00 +10°C° 0 mm 5 mps 744 mmHg 65%
    07:00 +12°C° 0 mm 5 mps 744 mmHg 62%
    08:00 +14°C° 0 mm 5 mps 744 mmHg 59%
    09:00 +16°C° 0 mm 6 mps 743 mmHg 57%
    10:00 +16°C° 0 mm 6 mps 743 mmHg 55%
    11:00 +17°C° 0 mm 6 mps 743 mmHg 53%
    12:00 +19°C° 0 mm 6 mps 742 mmHg 52%
    13:00 +19°C° 0 mm 6 mps 742 mmHg 53%
    14:00 +19°C° 0 mm 6 mps 742 mmHg 54%
    15:00 +17°C° 0 mm 5 mps 741 mmHg 54%
    16:00 +17°C° 0 mm 5 mps 741 mmHg 59%
    17:00 +17°C° 0 mm 4 mps 741 mmHg 63%
    18:00 +15°C° 0 mm 4 mps 741 mmHg 67%
    19:00 +14°C° 0 mm 3 mps 741 mmHg 71%
    20:00 +13°C° 0 mm 3 mps 741 mmHg 75%
    21:00 +13°C° 0 mm 3 mps 741 mmHg 78%
    22:00 +13°C° 0 mm 2 mps 741 mmHg 81%
    23:00 +12°C° 0 mm 2 mps 741 mmHg 83%

    24 April, Wednesday

    Time Temperature Precipitation Wind Pressure Humidity
    00:00 +12°C° 0 mm 2 mps 741 mmHg 86%
    01:00 +12°C° 0 mm 2 mps 741 mmHg 84%
    02:00 +12°C° 0 mm 2 mps 741 mmHg 83%
    03:00 +13°C° 0 mm 2 mps 741 mmHg 82%
    04:00 +14°C° 0 mm 2 mps 741 mmHg 81%
    05:00 +13°C° 0 mm 3 mps 742 mmHg 80%
    06:00 +14°C° 0 mm 3 mps 742 mmHg 80%
    07:00 +17°C° 0 mm 4 mps 742 mmHg 71%
    08:00 +19°C° 0 mm 5 mps 743 mmHg 63%
    09:00 +21°C° 0 mm 5 mps 743 mmHg 55%
    10:00 +22°C° 0 mm 6 mps 743 mmHg 50%
    11:00 +23°C° 0 mm 6 mps 743 mmHg 46%
    12:00 +24°C° 0 mm 6 mps 744 mmHg 42%
    13:00 +25°C° 0 mm 5 mps 744 mmHg 41%
    14:00 +25°C° 0 mm 5 mps 744 mmHg 40%
    15:00 +25°C° 0 mm 4 mps 744 mmHg 40%
    16:00 +23°C° 0.1 mm 4 mps 744 mmHg 46%
    17:00 +22°C° 0.1 mm 3 mps 744 mmHg 53%
    18:00 +20°C° 0.1 mm 2 mps 744 mmHg 60%
    19:00 +18°C° 4.3 mm 3 mps 744 mmHg 67%
    20:00 +15°C° 4.3 mm 4 mps 745 mmHg 75%
    21:00 +13°C° 4.3 mm 5 mps 745 mmHg 82%
    22:00 +13°C° 1.4 mm 5 mps 746 mmHg 82%
    23:00 +13°C° 1.4 mm 4 mps 747 mmHg 81%

    25 April, Thursday

    Time Temperature Precipitation Wind Pressure Humidity
    00:00 +12°C° 1.4 mm 4 mps 747 mmHg 81%
    01:00 +12°C° 0 mm 4 mps 748 mmHg 81%
    02:00 +11°C° 0 mm 3 mps 748 mmHg 81%
    03:00 +11°C° 0 mm 3 mps 748 mmHg 82%
    04:00 +11°C° 0 mm 3 mps 748 mmHg 80%
    05:00 +11°C° 0 mm 3 mps 748 mmHg 78%
    06:00 +11°C° 0 mm 3 mps 748 mmHg 76%
    07:00 +13°C° 0 mm 5 mps 748 mmHg 67%
    08:00 +15°C° 0 mm 6 mps 748 mmHg 57%
    09:00 +17°C° 0 mm 7 mps 748 mmHg 48%
    10:00 +18°C° 0 mm 7 mps 748 mmHg 46%
    11:00 +20°C° 0 mm 6 mps 748 mmHg 43%
    12:00 +21°C° 0 mm 6 mps 748 mmHg 41%
    13:00 +22°C° 0 mm 6 mps 748 mmHg 39%
    14:00 +22°C° 0 mm 5 mps 748 mmHg 38%
    15:00 +23°C° 0 mm 5 mps 747 mmHg 36%
    16:00 +22°C° 0 mm 4 mps 747 mmHg 40%
    17:00 +21°C° 0 mm 3 mps 748 mmHg 44%
    18:00 +20°C° 0 mm 2 mps 748 mmHg 48%
    19:00 +18°C° 0.1 mm 3 mps 748 mmHg 53%
    20:00 +17°C° 0.1 mm 3 mps 749 mmHg 58%
    21:00 +15°C° 0.1 mm 4 mps 749 mmHg 64%
    22:00 +14°C° 0.1 mm 4 mps 750 mmHg 67%
    23:00 +13°C° 0.1 mm 3 mps 750 mmHg 71%

    26 April, Friday

    Time Temperature Precipitation Wind Pressure Humidity
    00:00 +11°C° 0.1 mm 3 mps 750 mmHg 75%
    01:00 +11°C° 0 mm 3 mps 751 mmHg 75%
    02:00 +12°C° 0 mm 2 mps 751 mmHg 75%
    03:00 +10°C° 0 mm 2 mps 751 mmHg 75%
    04:00 +10°C° 0 mm 3 mps 751 mmHg 75%
    05:00 +10°C° 0 mm 3 mps 751 mmHg 74%
    06:00 +10°C° 0 mm 3 mps 752 mmHg 73%
    07:00 +11°C° 0 mm 4 mps 752 mmHg 67%
    08:00 +13°C° 0 mm 4 mps 752 mmHg 61%
    09:00 +14°C° 0 mm 4 mps 752 mmHg 54%
    10:00 +15°C° 0 mm 4 mps 752 mmHg 51%
    11:00 +15°C° 0 mm 5 mps 752 mmHg 48%
    12:00 +16°C° 0 mm 5 mps 752 mmHg 45%
    13:00 +16°C° 0 mm 5 mps 752 mmHg 48%
    14:00 +15°C° 0 mm 5 mps 752 mmHg 51%
    15:00 +15°C° 0 mm 5 mps 752 mmHg 53%
    16:00 +14°C° 0.2 mm 4 mps 753 mmHg 57%
    17:00 +14°C° 0.2 mm 4 mps 753 mmHg 61%
    18:00 +13°C° 0.2 mm 4 mps 753 mmHg 66%
    19:00 +12°C° 0 mm 4 mps 754 mmHg 69%
    20:00 +12°C° 0 mm 4 mps 754 mmHg 72%
    21:00 +11°C° 0 mm 4 mps 755 mmHg 75%
    22:00 +11°C° 0 mm 4 mps 755 mmHg 76%
    23:00 +11°C° 0 mm 4 mps 755 mmHg 78%
    Show more